Lid_Strength_Index
6 9 11 9 7 6 5 5 4 4 3 4 4 2 2 1 -0 0 0 -0 -1 -1 -1 -1 -1 -1 -1 -2 -2 -2 -2 -2
9 10 8 7 6 5 6 5 4 4 5 3 2 2 1 0 0 0 0 -0 -1 -1 -1 -1 -1 -1 -1 -1 -1 -2 -2 -2
8 8 6 6 5 5 6 5 4 4 5 4 2 1 0 0 0 0 0 -0 -0 -1 -1 -1 -1 -1 -1 -1 -1 -2 -2 -2
10 8 6 5 4 4 5 5 4 5 5 4 1 1 1 0 0 -0 0 -0 -0 -1 -1 -1 -1 -1 -1 -1 -1 -1 -2 -2
8 8 7 6 4 5 5 5 5 3 6 3 2 1 -0 -0 -0 -0 -0 -0 0 -0 -1 -1 -1 -1 -1 -1 -1 -1 -1 -1
8 8 8 5 5 4 5 5 3 3 5 5 2 1 1 1 0 0 0 0 0 -0 -0 -0 -1 -1 -1 -1 -1 -1 -1 -1
9 8 7 5 5 4 3 4 3 3 3 2 1 1 1 1 1 1 1 0 0 0 0 -0 -0 -1 -1 -1 -1 -1 -1 -1
6 6 6 5 5 5 5 5 4 4 2 2 1 2 2 2 2 2 1 0 0 0 0 0 -0 -0 -0 -1 -1 -0 -0 -1
5 5 4 5 5 4 5 6 5 5 3 2 2 2 2 2 2 2 1 1 0 0 0 0 0 0 -0 -0 -0 -0 -0 -1
5 4 5 5 4 5 5 5 3 3 2 2 2 2 2 2 2 2 1 0 -0 0 1 0 0 0 0 0 -0 0 -0 -0
4 4 5 4 5 5 5 3 3 3 3 3 3 2 2 2 1 1 1 0 0 0 1 1 0 0 0 0 0 -0 -0 -0
5 5 4 5 5 5 4 3 3 3 3 3 3 2 2 2 2 1 0 0 0 0 1 0 1 0 0 0 0 -0 -0 -0
5 5 5 4 7 6 4 3 4 4 3 3 3 2 2 2 2 1 0 1 1 1 1 1 1 0 0 0 -0 0 -0 -0
6 5 5 5 9 6 4 4 4 4 4 3 3 2 2 1 1 -0 1 1 1 0 1 1 1 0 0 0 0 -0 -0 -0
8 5 6 6 8 5 4 4 5 4 4 4 3 3 1 1 1 1 1 1 1 1 1 1 1 0 0 -0 0 -0 -0 -0
9 7 6 7 7 6 5 5 5 4 4 4 3 3 2 1 1 1 1 0 0 1 1 1 1 1 1 0 0 -0 -0 -0
8 6 7 8 7 6 5 5 5 5 4 4 4 3 2 1 1 1 0 0 1 1 1 1 2 2 2 2 1 1 0 -0
7 6 7 7 8 6 5 5 5 5 4 4 4 3 3 2 1 2 2 2 1 1 1 1 1 1 1 1 1 0 0 0
9 7 7 7 9 8 6 5 5 4 4 4 4 4 3 3 3 2 2 2 2 1 1 1 1 1 1 1 1 1 1 1
8 9 11 7 13 9 7 7 5 5 4 4 4 3 3 3 3 3 2 2 2 1 1 1 1 1 1 2 3 1 1 1